Terminal Aerodrome Forecast
Issued by NWS

Home | Current Version | Previous Version | Graphics & Text | Print | Product List | Glossary On
Versions: 1 2 3 4 5 6 7 8 9 10 11 12 13 14 15 16 17 18 19 20 21 22 23 24 25 26
151
FTUS43 KBIS 260524
TAFJMS
TAF
KJMS 260524Z 2606/2706 16008KT 6SM BR SCT130
     FM260800 17006KT 1/2SM FG BKN006
     FM261500 VRB03KT 1SM BR BKN008
     FM261600 00000KT P6SM BKN015
     FM261800 VRB03KT P6SM BKN050=

USA.gov is the U.S. government's official web portal to all federal, state and local government web resources and services.